Volver al catálogo

TES-23

ActivoCienciaSSO
NORAD 68426·PAYLOAD·🇺🇸 United States
Este nombre de satélite aún no ha sido confirmado por fuentes oficiales.

Lanzado Mar 30, 2026 desde Vandenberg Space Force Base

Loading…

Próximos Pases (próximas 24 horas)

TLE

ActualizadoSource: Space-Track

Época: Sep 14, 2026, 07:52 UTC

1 68426U 26067L   26257.32836165  .00010129  00000-0  45381-3 0  9990
2 68426  97.4639 214.9675 0003436  66.0267 294.1328 15.21435654 25498

Sigue TES-23 en tiempo real con AllMySat

Download on the App Store